This is the latest recevied weather packets stored in our database for station/object KC1BRV. If no packets are shown the sender has not sent any weather packets the latest 10 day(s).
| Time | Temp. | Humidity | Pressure | Rain* | Wind** | Luminosity | Snow |
|---|---|---|---|---|---|---|---|
| 1777863186 | 3.33° C | 74% | 1012 hPa | 0 mm | - | 0 W/m² | - |
| 1777862882 | 3.89° C | 75% | 1012 hPa | 0 mm | - | 0 W/m² | - |
| 1777862578 | 3.89° C | 76% | 1012.1 hPa | 0 mm | - | 0 W/m² | - |
| 1777862275 | 3.89° C | 76% | 1012.1 hPa | 0 mm | - | 0 W/m² | - |
| 1777861972 | 3.89° C | 77% | 1011.9 hPa | 0 mm | - | 0 W/m² | - |
| 1777861668 | 3.33° C | 77% | 1011.9 hPa | 0 mm | - | 0 W/m² | - |
| 1777861364 | 3.89° C | 76% | 1011.9 hPa | 0 mm | - | 0 W/m² | - |
| 1777861061 | 3.89° C | 75% | 1011.9 hPa | 0 mm | - | 0 W/m² | - |
| 1777860759 | 3.89° C | 75% | 1011.9 hPa | 0 mm | - | 0 W/m² | - |
| 1777860455 | 4.44° C | 73% | 1011.9 hPa | 0 mm | - | 0 W/m² | - |
| 1777860152 | 4.44° C | 73% | 1011.9 hPa | 0 mm | - | 0 W/m² | - |
| 1777859848 | 4.44° C | 72% | 1011.8 hPa | 0 mm | - | 0 W/m² | - |
| 1777859545 | 5° C | 69% | 1012 hPa | 0 mm | - | 0 W/m² | - |
| 1777859240 | 5° C | 69% | 1011.8 hPa | 0 mm | - | 0 W/m² | - |
| 1777858937 | 5° C | 67% | 1011.7 hPa | 0 mm | - | 0 W/m² | - |
| 1777858635 | 5° C | 68% | 1011.8 hPa | 0 mm | - | 0 W/m² | - |
| 1777858332 | 5.56° C | 68% | 1011.5 hPa | 0 mm | - | 0 W/m² | - |
| 1777858029 | 5.56° C | 68% | 1011.5 hPa | 0 mm | - | 0 W/m² | - |
| 1777857727 | 5.56° C | 66% | 1011.6 hPa | 0 mm | - | 0 W/m² | - |
| 1777857424 | 5.56° C | 65% | 1011.4 hPa | 0 mm | - | 0 W/m² | - |
| 1777857120 | 6.11° C | 64% | 1011.3 hPa | 0 mm | - | 0 W/m² | - |
| 1777856816 | 6.11° C | 63% | 1011.3 hPa | 0 mm | - | 0 W/m² | - |
| 1777856512 | 6.11° C | 61% | 1011.1 hPa | 0 mm | - | 0 W/m² | - |
| 1777856209 | 6.11° C | 59% | 1010.9 hPa | 0 mm | - | 0 W/m² | - |
| 1777855906 | 6.67° C | 56% | 1010.9 hPa | 0 mm | - | 0 W/m² | - |
* Rain latest hour (hover to see other rain measurements)
** Current wind speed in m/s (hover to see current wind gust speed)